This demonstration page uses our WeatherBlox Daily Observations layout. Learn more.

Hourly Observations for November 30, 2020

Temp ( °F °C ) Dew Point ( °F °C ) Humidity (%) Winds ( mph kmh ) Pressure ( in mb ) Visibility ( mi km ) Precip ( " mm )
12:53 am 00:53 Cloudy with Light Rain 43 6.1 36 2.2 76 76 NW 10 17 29.79 1009 10 16.0934 0.03 0.762
1:53 am 01:53 Cloudy with Light Rain 45 7.2 35 1.7 68 68 NNW 9 15 29.78 1008 10 16.0934 0.001 0.001
2:53 am 02:53 Cloudy with Light Rain 43 6.1 36 2.2 76 76 N 7 11 29.75 1008 9 14.48406 0.06 1.524
3:25 am 03:25 Cloudy with Rain 42 5.6 36 2.2 79 79 NNE 9 15 29.77 1008 8 12.87472 0.04 1.016
3:53 am 03:53 Cloudy with Rain 41 5 36 2.2 82 82 N 13 20 29.74 1007 7 11.26538 0.08 2.032
4:53 am 04:53 Cloudy with Rain 39 3.9 35 1.7 86 86 N 8 13 29.74 1007 5 8.0467 0.09 2.286
5:08 am 05:08 Cloudy with Rain 39 3.9 35 1.7 86 86 N 6 9 29.75 1008 5 8.0467 0.02 0.508
5:53 am 05:53 Cloudy with Rain 38 3.3 35 1.7 89 89 NNW 9 15 29.73 1007 6 9.65604 0.08 2.032
6:53 am 06:53 Cloudy with Rain 37 2.8 37 2.8 100 100 NNW 7 11 29.72 1006 6 9.65604 0.09 2.286
7:33 am 07:33 Cloudy with Light Rain 37 2.8 37 2.8 100 100 NW 8 13 29.74 1007 6 9.65604 0.03 0.762
7:53 am 07:53 Cloudy with Light Rain 38 3.3 37 2.8 97 97 NW 9 15 29.72 1007 6 9.65604 0.05 1.27
8:35 am 08:35 Cloudy with Light Rain 37 2.8 37 2.8 100 100 NW 12 19 29.75 1007 5 8.0467 0.04 1.016
8:53 am 08:53 Cloudy with Light Rain 37 2.8 36 2.2 96 96 NNW 13 20 29.73 1007 5 8.0467 0.05 1.27
9:07 am 09:07 Cloudy with Light Rain 36 2.2 36 2.2 100 100 NNW 14 22 29.75 1007 5 8.0467 0.01 0.254
9:53 am 09:53 Cloudy with Light Rain 36 2.2 36 2.2 100 100 NNW 12 19 29.73 1007 9 14.48406 0.04 1.016
10:53 am 10:53 Cloudy with Light Rain 36 2.2 35 1.7 97 97 NW 14 22 29.74 1007 10 16.0934 0.01 0.254
11:20 am 11:20 Cloudy with Light Rain 36 2.2 35 1.7 97 97 NW 15 24 29.77 1008 10 16.0934 0.01 0.254
11:53 am 11:53 Cloudy with Light Snow 35 1.7 35 1.7 100 100 NW 13 20 29.76 1008 3 4.82802 0.02 0.508
12:10 pm 12:10 Cloudy with Light Snow 35 1.7 35 1.7 100 100 NW 10 17 29.78 1008 3 4.82802 0.01 0.254
12:20 pm 12:20 Cloudy with Light Snow 34 1.1 34 1.1 100 100 WNW 14 22 29.78 1008 2.5 4.02335 0.02 0.508
12:34 pm 12:34 Cloudy with Light Snow 34 1.1 34 1.1 100 100 NW 12 19 29.78 1008 2 3.21868 0.03 0.762
12:40 pm 12:40 Cloudy with Light Snow 34 1.1 34 1.1 100 100 NW 14 22 29.78 1008 1.75 2.816345 0.03 0.762
12:49 pm 12:49 Cloudy with Light Snow 34 1 34 1 100 100 NW 12 19 29.78 1008 1.25 2.011675 0.04 1.016
12:53 pm 12:53 Cloudy with Light Snow 34 1.1 34 1.1 100 100 NW 10 17 29.76 1008 1.25 2.011675 0.04 1.016
1:08 pm 13:08 Cloudy with Light Snow 34 1.1 34 1.1 100 100 NW 10 17 29.78 1008 2 3.21868 0.01 0.254
1:24 pm 13:24 Cloudy with Light Snow 35 1.7 35 1.7 100 100 NW 12 19 29.78 1008 4 6.43736 0.01 0.254
1:31 pm 13:31 Cloudy with Light Snow 35 1.7 35 1.7 100 100 NW 15 24 29.78 1008 3 4.82802 0.01 0.254
1:53 pm 13:53 Cloudy with Light Snow 35 1.7 35 1.7 100 100 WNW 14 22 29.77 1008 4 6.43736 0.02 0.508
2:27 pm 14:27 Cloudy with Light Snow 35 1.7 34 1.1 96 96 NW 18 30 29.79 1009 2.5 4.02335 0.001 0.001
2:40 pm 14:40 Cloudy with Light Snow 35 1.7 34 1.1 96 96 NW 16 26 29.79 1009 3 4.82802 0.001 0.001
2:53 pm 14:53 Cloudy with Light Snow 35 1.7 34 1.1 96 96 NW 14 22 29.78 1008 4 6.43736 0.001 0.001
3:18 pm 15:18 Cloudy with Light Snow 35 1.7 34 1.1 96 96 NW 14 22 29.8 1009 4 6.43736 0.01 0.254
3:53 pm 15:53 Cloudy with Light Snow 34 1.1 34 1.1 100 100 WNW 10 17 29.79 1009 6 9.65604 0.01 0.254
4:09 pm 16:09 Cloudy with Light Snow 34 1.1 34 1.1 100 100 WNW 10 17 29.81 1009 4 6.43736 0.001 0.001
4:11 pm 16:11 Cloudy with Light Snow 34 1.1 34 1.1 100 100 WNW 12 19 29.81 1009 5 8.0467 0.001 0.001
4:18 pm 16:18 Cloudy with Light Snow 34 1.1 34 1.1 100 100 W 8 13 29.82 1010 6 9.65604 0.001 0.001
4:28 pm 16:28 Cloudy with Light Snow 34 1.1 34 1.1 100 100 NW 12 19 29.82 1010 7 11.26538 0.001 0.001
4:45 pm 16:45 Cloudy with Light Snow 34 1.1 34 1.1 100 100 WNW 9 15 29.82 1010 1.75 2.816345 0.001 0.001
4:53 pm 16:53 Cloudy with Light Snow 34 1.1 34 1.1 100 100 WNW 13 20 29.81 1010 1.5 2.41401 0.001 0.001
5:06 pm 17:06 Cloudy with Light Snow 33 0.6 33 0.6 100 100 NW 14 22 29.83 1010 0.75 1.207005 0.01 0.254
5:17 pm 17:17 Cloudy with Light Snow 33 0.6 33 0.6 100 100 NW 13 20 29.83 1010 1 1.60934 0.01 0.254
5:28 pm 17:28 Cloudy with Light Snow 33 0.6 33 0.6 100 100 WNW 10 17 29.83 1010 2 3.21868 0.01 0.254
5:41 pm 17:41 Cloudy with Light Snow 33 0.6 33 0.6 100 100 NW 13 20 29.83 1010 3 4.82802 0.01 0.254
5:49 pm 17:49 Cloudy with Light Snow 34 1 34 1 100 100 WNW 10 17 29.83 1010 3 4.82802 0.01 0.254
5:53 pm 17:53 Cloudy with Light Snow 33 0.6 33 0.6 100 100 WNW 9 15 29.82 1010 4 6.43736 0.01 0.254
6:06 pm 18:06 Cloudy with Light Snow 33 0.6 33 0.6 100 100 WNW 12 19 29.84 1011 2.5 4.02335 0.01 0.254
6:24 pm 18:24 Cloudy with Light Snow 33 0.6 33 0.6 100 100 WNW 9 15 29.84 1011 2.5 4.02335 0.01 0.254
6:26 pm 18:26 Cloudy with Light Snow 33 0.6 33 0.6 100 100 WNW 7 11 29.84 1011 2.5 4.02335 0.01 0.254
6:35 pm 18:35 Cloudy with Light Snow 33 0.6 33 0.6 100 100 WNW 8 13 29.84 1011 2.5 4.02335 0.01 0.254
6:41 pm 18:41 Cloudy with Light Snow 33 0.6 33 0.6 100 100 W 5 7 29.84 1011 1.75 2.816345 0.02 0.508
6:53 pm 18:53 Cloudy with Light Snow 33 0.6 33 0.6 100 100 WNW 9 15 29.83 1010 2.5 4.02335 0.02 0.508
6:58 pm 18:58 Cloudy with Light Snow 33 0.6 33 0.6 100 100 WNW 10 17 29.85 1011 3 4.82802 0.001 0.001
7:10 pm 19:10 Cloudy with Light Snow 33 0.6 33 0.6 100 100 WNW 15 24 29.85 1011 2 3.21868 0.001 0.001
7:16 pm 19:16 Cloudy with Light Snow 33 0.6 33 0.6 100 100 WNW 12 19 29.85 1011 1.5 2.41401 0.001 0.001
7:29 pm 19:29 Cloudy with Light Snow 33 0.6 33 0.6 100 100 W 8 13 29.85 1011 2 3.21868 0.01 0.254
7:36 pm 19:36 Cloudy with Light Snow 33 0.6 33 0.6 100 100 WNW 10 17 29.85 1011 2 3.21868 0.01 0.254
7:40 pm 19:40 Cloudy with Light Snow 33 0.6 33 0.6 100 100 WNW 9 15 29.86 1011 1.75 2.816345 0.01 0.254
7:53 pm 19:53 Cloudy with Light Snow 33 0.6 33 0.6 100 100 W 10 17 29.84 1011 1.75 2.816345 0.02 0.508
8:02 pm 20:02 Cloudy with Light Snow 32 0 32 0 100 100 W 12 19 29.86 1011 2 3.21868 0.001 0.001
8:13 pm 20:13 Cloudy with Light Snow 32 0 32 0 100 100 W 12 19 29.86 1011 2 3.21868 0.001 0.001
8:23 pm 20:23 Cloudy with Light Snow 32 0 32 0 100 100 WNW 10 17 29.87 1012 1.5 2.41401 0.01 0.254
8:33 pm 20:33 Cloudy with Light Snow 32 0 32 0 100 100 WNW 10 17 29.87 1012 1.75 2.816345 0.01 0.254
8:44 pm 20:44 Cloudy with Light Snow 32 0 32 0 100 100 WNW 9 15 29.87 1012 2.5 4.02335 0.01 0.254
8:53 pm 20:53 Cloudy with Light Snow 32 0 32 0 100 100 WNW 10 17 29.85 1011 2.5 4.02335 0.01 0.254
9:16 pm 21:16 Cloudy with Light Snow 32 0 32 0 100 100 WNW 10 17 29.87 1012 3 4.82802 0.01 0.254
9:51 pm 21:51 Cloudy with Light Snow 32 0 32 0 100 100 WNW 9 15 29.87 1012 2.5 4.02335 0.01 0.254
9:53 pm 21:53 Cloudy with Light Snow 32 0 32 0 100 100 WNW 10 17 29.86 1011 2.5 4.02335 0.01 0.254
10:06 pm 22:06 Cloudy with Light Snow 32 0 32 0 100 100 W 10 17 29.88 1012 3 4.82802 0.001 0.001
10:53 pm 22:53 Cloudy with Light Snow 32 0 30 -1.1 92 92 WNW 12 19 29.87 1011 3 4.82802 0.001 0.001
11:33 pm 23:33 Cloudy with Light Snow 31 -0.6 30 -1.1 96 96 W 8 13 29.89 1012 2.5 4.02335 0.01 0.254
11:53 pm 23:53 Cloudy with Light Snow 31 -0.6 29 -1.7 92 92 WNW 10 17 29.88 1012 2 3.21868 0.01 0.254

Powered by AerisWeather